Location: Misciano
(43.5000°N, 11.9500°E)
Time: 06:17:17
(UTC+00:00)

Cosmos 2360 Rocket - Pass Details

Date: 13 August 2020
Orbit: 834 x 845 km, 71.0° (Epoch: 23 September)

Event Time Altitude Azimuth Distance (km) Brightness Sun altitude
Rises 19:10:38 0° 348° (NNW) 3,414 6.0 -9.4°
Reaches altitude 10° 19:15:26 10° 24° (NNE) 2,473 4.7 -10.2°
Maximum altitude 19:16:52 11° 39° (NE) 2,407 4.5 -10.4°
Drops below altitude 10° 19:18:19 10° 54° (NE) 2,469 4.4 -10.6°
Enters shadow 19:21:17 - 79° (E) 2,952 4.6 -11.1°
